Location: La Tine
(46.4708°N, 7.0525°E)
Time: 01:09:17
(UTC+00:00)

Meteor 1-24 Rocket - Pass Details

Date: 17 January 2021
Orbit: 791 x 926 km, 81.3° (Epoch: 03 March)

Event Time Altitude Azimuth Distance (km) Brightness Sun altitude
Exits shadow 05:00:19 34° 327° (NNW) 1,326 4.4 -21.9°
Maximum altitude 05:02:31 58° 264° (W) 958 3.6 -21.5°
Drops below altitude 10° 05:07:56 10° 187° (S) 2,454 6.1 -20.6°
Sets 05:10:25 0° 183° (S) 3,406 6.9 -20.1°
